User: anonymous   Login
Location: Unspecified
(0.0000°N, 0.0000°E)
Time: 12:14:00
(UTC+00:00)
Language:

Vanguard 2 Rocket - Orbit

View from above orbital plane
View from above orbital plane
View from above satellite
View from above satellite

Ground track
Ground track

The orbit data is extracted from the following two-line orbital elements,

1    12U 59001B   17177.37718615 -.00000068 +00000-0 -39529-4 0  9997
2    12 032.8958 193.9087 1667530 121.3192 256.1367 11.44150913155431
Epoch (UTC): 26 June 2017 09:03:08
Eccentricity: 0.1667530
inclination: 32.8958°
perigee height: 554 km
apogee height: 3328 km
right ascension of ascending node: 193.9087°
argument of perigee: 121.3192°
revolutions per day: 11.44150913
mean anomaly at epoch: 256.1367°
orbit number at epoch: 15543

The dashed part of the orbit path shows where the satellite is in the earth's shadow,  

DLR